Погода в Кургане

Россия / Саратовская область     52°23′18″N   43°39′56″E
темп.,
°C
ветер,
м/с
пор.,
м/с
влажн.,
%
обл.,
%
осадки,
мм/ч
давл.,
гПа
погр.,
м
14 мая, пт
пт1401:00+15вюв1188100 0.0 101811
04:00+14в1189100 0.0 101811
07:00+16вюв1188100 0.0 101821
10:00+21юв22715 0.0 1018441
13:00+25юв345329 0.0 10181218
16:00+26юв454985 0.0 10161232
19:00+23юв51171100 0.0 1015344
22:00+19юв4108485 0.0 1015155
15 мая, сб
сб1501:00+18юв5157299 0.0 1014312
04:00+17ююв5165659 0.0 1015344
07:00+16ююв51466100 0.0 1015308
10:00+21ю61457100 0.0 1016551
13:00+25ю712485 0.0 10151012
16:00+26ю6125296 0.0 10151487
19:00+23ююв4106455 0.0 1014248
22:00+18ююв347125 0.0 101548
16 мая, вс
вс1601:00+16ю237726 0.0 101522
04:00+15зюз118351 0.0 101511
07:00+17в128093 0.0 101655
10:00+21ююв3462100 0.0 1016382
13:00+25ю5844100 0.0 10161024
16:00+25ю5849100 0.0 10161129
19:00+23ю2364100 0.0 101546
22:00+19юв2265100 0.0 101515
17 мая, пн
пн1701:00+17в3366100 0.0 101527
04:00+16юв226286 0.0 101619
07:00+17вюв3463100 0.0 101665
10:00+23юв51251100 0.0 1016521
13:00+26ююв6943100 0.0 1016893
16:00+27юв6948100 0.0 10151060
19:00+24юв49612 0.0 1014220
22:00+19вюв41259100 0.0 1015169
18 мая, вт
вт1801:00+17вюв41253100 0.0 1014180
04:00+15вюв412555 0.0 1013189
07:00+16юв410675 0.0 1013177
10:00+23юв5114957 0.0 1013454
13:00+27юв693825 0.0 10131033
16:00+27юв6114637 0.0 10121248
19:00+24юв410597 0.0 1011250
22:00+20юв41360100 0.0 1011228